Weather History for HKEL - November, 2013

Change the Weather History Date:

Wednesday, November 27, 2013

  Actual Average Record
Temperature  
Mean Temperature 60 °F -  
Max Temperature 71 °F - - ()
Min Temperature 50 °F - - ()
Degree Days  
Heating Degree Days 4    
Growing Degree Days 10 (Base 50)    
Moisture  
Dew Point 50 °F    
Average Humidity 69    
Maximum Humidity 94    
Minimum Humidity 43    
Precipitation  
Precipitation 0.00 in - - ()
Sea Level Pressure  
Sea Level Pressure 30.24 in    
Wind  
Wind Speed 8 mph ()    
Max Wind Speed 25 mph    
Max Gust Speed -    
Visibility 6.2 miles    
Events      
T = Trace of Precipitation, MM = Missing Value Source: Averaged Metar Reports

Daily Weather History Graph

Daily Weather History Graph

Search for Another Location

Airport or City:

Trip Planner

Search our weather history database for the weather conditions in past years. The results will help you decide how hot, cold, wet, or windy it might be!

Date:

Astronomy

Nov. 27, 2013 Rise Set
Actual Time 6:23 AM EAT 6:29 PM EAT
Civil Twilight 6:01 AM EAT 6:51 PM EAT
Nautical Twilight 5:35 AM EAT 7:17 PM EAT
Astronomical Twilight 5:09 AM EAT 7:43 PM EAT
Moon 1:23 AM EAT (11/27) 1:45 PM EAT (11/27)
Length of Visible Light 12h 50m
Length of Day
12h 06m
Waning Crescent, 35% of the Moon is Illuminated
Nov 27
Waning Crescent
Dec 3
New
Dec 9
First Quarter
Dec 17
Full
Dec 25
Last Quarter

Hourly Weather History & Observations

Time (EAT) Temp. Dew Point Humidity Pressure Visibility Wind Dir Wind Speed Gust Speed Precip Events Conditions
12:00 AM 53.6 °F 50.0 °F 88% 30.21 in - Calm Calm - N/A   Clear
1:00 AM 53.6 °F 50.0 °F 88% 30.21 in - Calm Calm - N/A   Clear
2:00 AM 57.2 °F 50.0 °F 77% - - Calm Calm - N/A   Clear
3:00 AM 51.8 °F 48.2 °F 88% 30.21 in 6.2 mi Variable 2.3 mph - N/A   Scattered Clouds
5:00 AM 53.6 °F 50.0 °F 88% - - Calm Calm - N/A   Clear
6:00 AM 50.0 °F 48.2 °F 94% 30.24 in 6.2 mi ENE 5.8 mph - N/A   Mostly Cloudy
7:00 AM 55.4 °F 51.8 °F 88% - 6.2 mi ENE 5.8 mph - N/A   Scattered Clouds
8:00 AM 62.6 °F 53.6 °F 72% 30.27 in 6.2 mi ENE 19.6 mph - N/A   Mostly Cloudy
9:00 AM 64.4 °F 51.8 °F 64% 30.30 in 6.2 mi ENE 23.0 mph - N/A   Mostly Cloudy
10:00 AM 64.4 °F 51.8 °F 64% 30.30 in 6.2 mi ENE 16.1 mph - N/A   Mostly Cloudy
11:00 AM 68.0 °F 51.8 °F 56% 30.30 in 6.2 mi NNE 25.3 mph - N/A   Mostly Cloudy
12:00 PM 68.0 °F 50.0 °F 52% 30.27 in 6.2 mi ENE 20.7 mph - N/A   Mostly Cloudy
1:00 PM 69.8 °F 50.0 °F 49% 30.24 in 6.2 mi NE 17.3 mph - N/A   Mostly Cloudy
2:00 PM 71.6 °F 48.2 °F 43% 30.21 in 6.2 mi ENE 16.1 mph - N/A   Mostly Cloudy
3:00 PM 71.6 °F 50.0 °F 46% 30.21 in 6.2 mi NNE 21.9 mph - N/A   Mostly Cloudy
4:00 PM 69.8 °F 48.2 °F 46% 30.18 in 6.2 mi NE 9.2 mph - N/A   Mostly Cloudy
5:00 PM 69.8 °F 50.0 °F 49% 30.18 in 6.2 mi NE 13.8 mph - N/A   Scattered Clouds
6:00 PM 68.0 °F 50.0 °F 52% 30.21 in 6.2 mi NE 12.7 mph - N/A   Scattered Clouds
7:00 PM 62.6 °F 50.0 °F 63% 30.21 in 6.2 mi NE 6.9 mph - N/A   Scattered Clouds
9:00 PM 57.2 °F 51.8 °F 82% 30.24 in 6.2 mi East 13.8 mph - N/A   Partly Cloudy
10:00 PM 57.2 °F 51.8 °F 82% 30.27 in - ENE 9.2 mph - N/A   Clear
11:00 PM 55.4 °F 51.8 °F 88% 30.27 in - East 5.8 mph - N/A   Clear